ZL2VAX Weather Reports


time (UTC)temp
C
wind
direction
speed
KPH
gust
KPH
rain 1hr
cm
rain 24hr
cm
rain mn
cm
humidity
%
barometer
mb
20260506050544 17 258 3.2 6.4 0.00 0.00 0.00 78 1027.2
20260506044600 17 248 3.2 11.3 0.00 0.00 0.00 76 1027.1
20260506043536 18 248 0.0 3.2 0.00 0.00 0.00 74 1027.1
20260506042554 19 100 0.0 3.2 0.00 0.00 0.00 71 1027.0
20260506041531 19 261 0.0 3.2 0.00 0.00 0.00 71 1027.1
20260506040529 19 221 1.6 6.4 0.00 0.00 0.00 71 1027.2
20260506035546 19 223 4.8 11.3 0.00 0.00 0.00 71 1027.2
20260506034523 18 241 3.2 6.4 0.00 0.00 0.00 73 1027.1
20260506033603 19 240 8.0 24.1 0.00 0.00 0.00 71 1027.1
20260506032518 18 180 3.2 11.3 0.00 0.00 0.00 72 1027.0
20260506031536 19 242 3.2 11.3 0.00 0.00 0.00 72 1027.0
20260506030614 19 261 4.8 17.7 0.00 0.00 0.00 71 1027.1
20260506025610 19 283 1.6 6.4 0.00 0.00 0.00 71 1027.0
20260506024630 18 187 3.2 11.3 0.00 0.00 0.00 73 1027.1
20260506023625 18 263 4.8 17.7 0.00 0.00 0.00 73 1027.1
20260506022603 18 258 6.4 25.7 0.00 0.00 0.00 72 1027.1
20260506021601 18 257 6.4 14.5 0.00 0.00 0.00 72 1027.2
20260506020558 19 276 8.0 20.9 0.00 0.00 0.00 71 1027.1
20260506015556 18 216 8.0 17.7 0.00 0.00 0.00 71 1027.3
20260506014552 19 255 4.8 14.5 0.00 0.00 0.00 69 1027.3
20260506013550 20 276 3.2 11.3 0.00 0.00 0.00 67 1027.2
20260506012609 20 279 9.7 24.1 0.00 0.00 0.00 67 1027.2
20260506011545 18 328 3.2 6.4 0.00 0.00 0.00 70 1027.4
20260506010543 18 234 1.6 6.4 0.00 0.00 0.00 71 1027.5
20260506005541 18 234 6.4 22.5 0.00 0.00 0.00 70 1027.6
20260506004557 19 270 11.3 22.5 0.00 0.00 0.00 71 1027.7
20260506003535 19 243 12.9 25.7 0.00 0.00 0.00 70 1027.9
20260506002537 19 296 9.7 29.0 0.00 0.00 0.00 69 1027.8
20260506001534 19 265 6.4 12.9 0.00 0.00 0.00 69 1028.0
20260506000527 19 277 8.0 22.5 0.00 0.00 0.00 70 1028.1
20260505235524 19 261 9.7 20.9 0.00 0.00 0.00 69 1028.2
20260505234523 20 276 6.4 17.7 0.00 0.00 0.00 69 1028.3
20260505233540 19 283 11.3 20.9 0.00 0.00 0.00 70 1028.3
20260505232558 18 283 12.9 24.1 0.00 0.00 0.00 70 1028.4
20260505231634 18 296 8.0 22.5 0.00 0.00 0.00 70 1028.4
20260505230611 18 285 11.3 22.5 0.00 0.00 0.00 70 1028.5
20260505225610 18 278 8.0 17.7 0.00 0.00 0.00 71 1028.6
20260505224607 18 292 6.4 14.5 0.00 0.00 0.00 72 1028.7
20260505223603 17 294 1.6 6.4 0.00 0.00 0.00 74 1028.7
20260505222642 17 334 1.6 3.2 0.00 0.00 0.00 75 1028.9
20260505221600 16 40 1.6 6.4 0.00 0.00 0.00 76 1029.0
20260505220556 16 351 1.6 6.4 0.00 0.00 0.00 78 1029.1
20260505215553 15 315 1.6 3.2 0.00 0.00 0.00 80 1029.3
20260505214632 16 255 3.2 6.4 0.00 0.00 0.00 79 1029.4
20260505213548 16 256 3.2 9.7 0.00 0.00 0.00 79 1029.4
20260505212546 16 345 3.2 6.4 0.00 0.00 0.00 78 1029.4
20260505211543 17 347 3.2 6.4 0.00 0.00 0.00 74 1029.6
20260505210602 16 316 3.2 6.4 0.00 0.00 0.00 77 1029.6
20260505205538 16 354 3.2 9.7 0.00 0.00 0.00 75 1029.6
20260505204537 15 263 6.4 12.9 0.00 0.00 0.00 77 1029.6
20260505203533 15 283 3.2 9.7 0.00 0.00 0.00 78 1029.5
20260505202531 14 208 6.4 9.7 0.00 0.00 0.00 79 1029.5
20260505201528 14 245 8.0 17.7 0.00 0.00 0.00 79 1029.4
20260505200525 14 254 8.0 17.7 0.00 0.00 0.00 80 1029.3
20260505195524 14 255 8.0 14.5 0.00 0.00 0.00 80 1029.3
20260505194520 13 242 11.3 17.7 0.00 0.00 0.00 80 1029.4
20260505193518 13 257 9.7 17.7 0.00 0.00 0.00 81 1029.3
20260505192617 13 266 4.8 11.3 0.00 0.00 0.00 81 1029.2
20260505191613 13 271 11.3 17.7 0.00 0.00 0.00 80 1029.2
20260505190610 13 264 6.4 12.9 0.00 0.00 0.00 81 1029.1
20260505185607 13 264 3.2 6.4 0.00 0.00 0.00 80 1029.2
20260505184605 13 278 3.2 9.7 0.00 0.00 0.00 80 1029.2
20260505183602 13 256 6.4 9.7 0.00 0.00 0.00 81 1029.0
20260505182600 13 239 4.8 11.3 0.00 0.00 0.00 80 1029.1
20260505181618 13 250 6.4 12.9 0.00 0.00 0.00 80 1029.1
20260505180555 13 248 6.4 14.5 0.00 0.00 0.00 80 1029.1
20260505175613 12 266 3.2 6.4 0.00 0.00 0.00 83 1029.2
20260505174549 12 0.0 0.0 0.00 0.00 0.00 83 1029.2
20260505173547 13 61 1.6 3.2 0.00 0.00 0.00 82 1029.2
20260505172605 13 248 0.0 3.2 0.00 0.00 0.00 81 1029.4
20260505171606 13 253 0.0 6.4 0.00 0.00 0.00 81 1029.6
20260505170539 13 0.0 0.0 0.00 0.00 0.00 80 1029.6
20260505165536 13 257 4.8 11.3 0.00 0.00 0.00 80 1029.6
20260505164535 13 254 8.0 14.5 0.00 0.00 0.00 80 1029.6
20260505163532 13 257 6.4 17.7 0.00 0.00 0.00 80 1029.6
20260505162529 13 255 6.4 14.5 0.00 0.00 0.00 80 1029.6
20260505161526 13 246 8.0 17.7 0.00 0.00 0.00 80 1029.7
20260505160523 13 233 8.0 14.5 0.00 0.00 0.00 80 1029.5
20260505152613 14 278 6.4 11.3 0.00 0.00 0.00 79 1029.6
20260505151611 13 277 6.4 11.3 0.00 0.00 0.00 79 1029.6
20260505150608 13 340 4.8 9.7 0.00 0.00 0.00 80 1029.9
20260505140557 11 0.0 0.0 0.00 0.00 0.00 89 1030.6
20260505124532 11 0.0 0.0 0.00 0.00 0.00 87 1031.4
20260505123530 11 0.0 0.0 0.00 0.00 0.00 86 1031.5
20260505122532 11 0.0 0.0 0.00 0.00 0.00 86 1031.5
20260505121525 11 0.0 0.0 0.00 0.00 0.00 85 1031.5
20260505120521 11 0.0 0.0 0.00 0.00 0.00 85 1031.6
20260505115519 11 0.0 0.0 0.00 0.00 0.00 86 1031.6
20260505114516 11 0.0 0.0 0.00 0.00 0.00 86 1031.7
20260505113614 10 0.0 0.0 0.00 0.00 0.00 87 1031.7
20260505112611 10 0.0 0.0 0.00 0.00 0.00 88 1031.9
20260505111631 10 0.0 0.0 0.00 0.00 0.00 87 1031.9
20260505110606 9 0.0 0.0 0.00 0.00 0.00 88 1032.0
20260505101554 9 298 1.6 6.4 0.00 0.00 0.00 86 1032.4
20260505100551 10 270 1.6 3.2 0.00 0.00 0.00 85 1032.4
20260505095548 10 282 3.2 6.4 0.00 0.00 0.00 85 1032.4
20260505094545 9 293 3.2 6.4 0.00 0.00 0.00 86 1032.4
20260505093603 10 274 3.2 6.4 0.00 0.00 0.00 85 1032.4
20260505092540 10 293 4.8 6.4 0.00 0.00 0.00 83 1032.4
20260505091539 11 283 6.4 6.4 0.00 0.00 0.00 80 1032.3
20260505090535 11 287 4.8 9.7 0.00 0.00 0.00 81 1032.3
20260505085533 11 278 3.2 6.4 0.00 0.00 0.00 82 1032.3
20260505084530 10 270 4.8 6.4 0.00 0.00 0.00 83 1032.3
20260505083527 10 293 3.2 6.4 0.00 0.00 0.00 84 1032.4
20260505082525 10 286 4.8 6.4 0.00 0.00 0.00 84 1032.4
20260505081543 10 270 3.2 3.2 0.00 0.00 0.00 84 1032.5
20260505080520 9 296 0.0 6.4 0.00 0.00 0.00 85 1032.5
20260505075517 9 261 1.6 6.4 0.00 0.00 0.00 86 1032.5
20260505074614 10 279 1.6 3.2 0.00 0.00 0.00 83 1032.6
20260505073617 11 287 1.6 6.4 0.00 0.00 0.00 81 1032.5
20260505072609 11 264 3.2 9.7 0.00 0.00 0.00 80 1032.5
20260505071628 10 293 0.0 3.2 0.00 0.00 0.00 81 1032.5
20260505070604 10 277 1.6 6.4 0.00 0.00 0.00 83 1032.5
20260505065623 11 0.0 3.2 0.00 0.00 0.00 81 1032.4
20260505064604 10 283 0.0 3.2 0.00 0.00 0.00 83 1032.4
20260505063557 10 319 1.6 6.4 0.00 0.00 0.00 84 1032.4
20260505062554 10 282 1.6 6.4 0.00 0.00 0.00 84 1032.4
20260505061552 10 256 1.6 6.4 0.00 0.00 0.00 84 1032.4
20260505060549 11 307 1.6 6.4 0.00 0.00 0.00 81 1032.3
20260505055547 11 203 1.6 3.2 0.00 0.00 0.00 80 1032.4
20260505054543 12 131 1.6 6.4 0.00 0.00 0.00 78 1032.2